"Pseudo-MPEC" for P115YcL

Created 2020 Sep 19 17:07:23 UT using Find_Orb

Click here for an explanation of pseudo-MPECs

 
 Astrometry: 
     P115YcL  C2020 09 14hv,bt;kJ%u^J%)Astrometryg5aZ-6gBX?jwq9^(53jredacted;F51
     P115YcL  C2020 09 14c+_UUP9B/w0E^j,tWNRPclickr)H1B(m1;^Nw)Up3I8wFHherev^F51
     P115YcL  C2020 09 14m(2J0U(G#mi+a!yO!P21FZ_QZ-MTforUP%?n4explanation!o7nF51

Station data:
(F51) Pan-STARRS 1, Haleakala  (N20.707235 W156.255910)  US/Hawaii.
   Observers N. Primak, A. Schultz, S. Watters, J. Thiel, T. Goggia. Measurer
   PS1 Science Consortium. 1.8-m Ritchey-Chrétien + CCD.

Orbital elements:  P115YcL
   Perihelion 2020 Dec 28.518143 +/- 26.2 TT = 12:26:07 (JD 2459212.018143)
Epoch 2020 Sep 15.0 TT = JDT 2459107.5   Earth MOID: 0.0041   AutoNEOCP
M 253.93179519 +/- 33               (J2000 ecliptic)
n   1.01483055 +/- 0.607            Peri.   84.76171 +/- 80
a   0.98070945 +/- 0.391            Node    29.30939 +/- 60
e   0.1356410 +/- 0.242             Incl.    0.95681 +/- 26
P   0.97/354.73d           H 27.6   G  0.15   U 12.4  SR
q 0.84768496 +/- 0.403    Q 1.11373393 +/- 28
From 3 observations 2020 Sept. 14 (32.5 min); mean residual 0".06
Residuals in arcseconds: 
200914 F51  .05+  .02+    200914 F51  .11-  .05-    200914 F51  .06+  .02+    

Ephemerides (geocentric):
Date (UTC) HH   RA              Dec         delta   r     elong  mag " sig PA
---- -- -- --  -------------   -----------  ------ ------ -----  --- ---- ---
2020 09 19 17  03 18 36.792   +00 51 27.13  .03050 1.0232 127.5 22.0  65d   0
2020 09 19 18  03 19 01.543   +00 51 37.30  .03042 1.0232 127.4 21.9  65d   0
2020 09 19 19  03 19 26.414   +00 51 47.51  .03034 1.0231 127.4 21.9  65d   0
2020 09 19 20  03 19 51.408   +00 51 57.76  .03026 1.0230 127.3 21.9  66d   0
2020 09 19 21  03 20 16.525   +00 52 08.05  .03018 1.0229 127.2 21.9  66d   0
2020 09 19 22  03 20 41.765   +00 52 18.39  .03010 1.0228 127.2 21.9  66d   0
2020 09 19 23  03 21 07.130   +00 52 28.76  .03002 1.0227 127.1 21.9  66d   0
2020 09 20 00  03 21 32.621   +00 52 39.18  .02994 1.0226 127.0 21.9  66d   0
2020 09 20 01  03 21 58.238   +00 52 49.64  .02986 1.0225 127.0 21.9  66d   0
2020 09 20 02  03 22 23.982   +00 53 00.15  .02978 1.0224 126.9 21.9  66d   0
2020 09 20 03  03 22 49.854   +00 53 10.69  .02970 1.0224 126.8 21.9  66d   0
2020 09 20 04  03 23 15.855   +00 53 21.28  .02962 1.0223 126.7 21.9  66d   0
2020 09 20 05  03 23 41.986   +00 53 31.92  .02954 1.0222 126.7 21.9  67d   0
2020 09 20 06  03 24 08.248   +00 53 42.60  .02946 1.0221 126.6 21.9  67d   0
2020 09 20 07  03 24 34.642   +00 53 53.32  .02938 1.0220 126.5 21.9  67d   0
2020 09 20 08  03 25 01.168   +00 54 04.09  .02930 1.0219 126.5 21.9  67d   0
2020 09 20 09  03 25 27.827   +00 54 14.91  .02922 1.0218 126.4 21.9  67d   0
2020 09 20 10  03 25 54.621   +00 54 25.77  .02914 1.0217 126.3 21.9  67d   0
2020 09 20 11  03 26 21.551   +00 54 36.67  .02907 1.0216 126.2 21.9  67d   0
2020 09 20 12  03 26 48.617   +00 54 47.62  .02899 1.0215 126.2 21.9  67d   0
2020 09 20 13  03 27 15.820   +00 54 58.62  .02891 1.0215 126.1 21.9  67d   0
2020 09 20 14  03 27 43.161   +00 55 09.67  .02883 1.0214 126.0 21.9  67d   0
2020 09 20 15  03 28 10.642   +00 55 20.76  .02875 1.0213 125.9 21.9  67d   0
2020 09 20 16  03 28 38.262   +00 55 31.90  .02867 1.0212 125.9 21.9  67d   0
2020 09 20 17  03 29 06.024   +00 55 43.09  .02859 1.0211 125.8 21.9  67d   0
2020 09 20 18  03 29 33.928   +00 55 54.32  .02852 1.0210 125.7 21.9  67d   0
2020 09 20 19  03 30 01.975   +00 56 05.60  .02844 1.0209 125.6 21.9  68d   0
2020 09 20 20  03 30 30.166   +00 56 16.94  .02836 1.0208 125.5 21.8  68d   0
2020 09 20 21  03 30 58.502   +00 56 28.32  .02828 1.0207 125.5 21.8  68d   0
2020 09 20 22  03 31 26.984   +00 56 39.75  .02821 1.0206 125.4 21.8  68d   0
2020 09 20 23  03 31 55.613   +00 56 51.23  .02813 1.0206 125.3 21.8  68d   0
2020 09 21 00  03 32 24.391   +00 57 02.76  .02805 1.0205 125.2 21.8  68d   0
2020 09 21 01  03 32 53.317   +00 57 14.34  .02797 1.0204 125.1 21.8  68d   0
2020 09 21 02  03 33 22.393   +00 57 25.97  .02790 1.0203 125.1 21.8  68d   0
2020 09 21 03  03 33 51.621   +00 57 37.65  .02782 1.0202 125.0 21.8  68d   0
2020 09 21 04  03 34 21.001   +00 57 49.38  .02774 1.0201 124.9 21.8  68d   0
2020 09 21 05  03 34 50.534   +00 58 01.16  .02767 1.0200 124.8 21.8  68d   0
2020 09 21 06  03 35 20.221   +00 58 13.00  .02759 1.0199 124.7 21.8  68d   0
2020 09 21 07  03 35 50.064   +00 58 24.88  .02751 1.0198 124.6 21.8  68d   0
2020 09 21 08  03 36 20.063   +00 58 36.82  .02744 1.0197 124.5 21.8  68d   0
2020 09 21 09  03 36 50.219   +00 58 48.81  .02736 1.0197 124.4 21.8  68d   0
2020 09 21 10  03 37 20.534   +00 59 00.86  .02728 1.0196 124.4 21.8  68d   0
2020 09 21 11  03 37 51.009   +00 59 12.95  .02721 1.0195 124.3 21.8  68d   0
2020 09 21 12  03 38 21.644   +00 59 25.10  .02713 1.0194 124.2 21.8  68d   0
2020 09 21 13  03 38 52.442   +00 59 37.30  .02706 1.0193 124.1 21.8  68d   0
2020 09 21 14  03 39 23.402   +00 59 49.56  .02698 1.0192 124.0 21.8  68d   0
2020 09 21 15  03 39 54.526   +01 00 01.87  .02691 1.0191 123.9 21.8  68d   0
2020 09 21 16  03 40 25.815   +01 00 14.23  .02683 1.0190 123.8 21.8  68d   0